Simultaneous Nadir Overpasses (SNOs) Predictions

Prediction of SNOs between FY3D and LANDSAT-8 Satellite Orbit:

Table of predicted SNOs for the next 14.0 days since TLE Epoch: 8/31/2019
Index Date (FY3D) Time (FY3D) Lat,Lon (FY3D) SZA (FY3D ) Date (LANDSAT-8) Time (LANDSAT-8) Lat,Lon (LANDSAT-8) SZA (LANDSAT-8 ) Distance(km) Time Diff (sec)
1 08/31/2019 16:57:03 -70.48, 102.52 118.15 08/31/2019 16:57:59 -70.47, 102.55 118.17 1.37 56
2 08/31/2019 17:47:47 70.36, -89.98 61.74 08/31/2019 17:47:26 70.37, -89.96 61.74 0.72 21
3 08/31/2019 18:38:16 -69.63, 78.45 119.00 08/31/2019 18:37:07 -69.66, 76.66 118.94 69.13 69
4 09/03/2019 09:13:29 -70.45,-141.54 117.22 09/03/2019 09:14:29 -70.45,-141.60 117.22 2.27 60
5 09/03/2019 10:04:13 70.33, 25.96 62.68 09/03/2019 10:03:56 70.35, 25.88 62.69 2.98 17
6 09/03/2019 10:54:44 -69.71,-165.77 117.96 09/03/2019 10:53:35 -69.75,-167.33 117.88 60.18 69
7 09/06/2019 01:29:56 -70.48, -25.69 116.21 09/06/2019 01:30:58 -70.49, -25.67 116.20 1.62 62
8 09/06/2019 02:20:39 70.36, 141.81 63.69 09/06/2019 02:20:24 70.38, 141.81 63.71 2.16 15
9 09/06/2019 03:11:12 -69.84, -50.08 116.84 09/06/2019 03:10:01 -69.89, -51.25 116.76 45.38 71
10 09/08/2019 17:46:21 -70.45, 90.24 115.24 09/08/2019 17:47:27 -70.47, 90.18 115.23 3.35 66
11 09/08/2019 18:37:06 70.38,-102.35 64.71 09/08/2019 18:36:54 70.35,-102.35 64.68 3.44 12
12 09/08/2019 19:27:40 -69.91, 65.70 115.76 09/08/2019 19:26:29 -69.98, 64.75 115.68 36.80 71
13 09/11/2019 10:02:48 -70.47,-153.91 114.21 09/11/2019 10:03:56 -70.50,-153.90 114.19 2.86 68
14 09/11/2019 10:53:32 70.36, 13.58 65.69 09/11/2019 10:53:23 70.38, 13.58 65.72 2.65 9
15 09/11/2019 11:44:09 -70.04,-178.61 114.62 09/11/2019 11:42:56 -70.12,-179.17 114.53 22.81 73




NCC Satellite Simultaneous Nadir Overpasses (SNOs) Prediction Service
